Location: Cordelia Junction
(38.2169°N, 122.1397°W)
Time: 14:01:13
(UTC+00:00)

Daily predictions for brighter satellites

Satellite Brightness Start Highest point End
(mag) Time Altitude Azimuth Time Altitude Azimuth Time Altitude Azimuth
Cosmos 1933 Rocket 4.3 12:08:09 10° NNW 12:12:02 32° W 12:15:53 10° SSW
Cosmos 1867 3.8 12:08:20 10° NW 12:13:31 45° WSW 12:18:40 10° S
Intelsat 5-1 Rocket 4.2 12:11:18 10° SSW 12:14:29 18° SSE 12:19:55 10° ESE
AQUA 3.9 12:10:01 10° N 12:14:38 61° WNW 12:19:13 10° SSW
Cosmos 1400 Rocket 2.8 12:13:29 10° NNW 12:17:11 54° W 12:20:51 10° S
USA 307 4.3 12:17:34 10° WSW 12:19:07 13° SW 12:20:46 10° SSW
ADEOS II 3.3 12:15:33 10° NNW 12:19:47 26° WNW 12:24:01 10° WSW
Cosmos 1844 Rocket 4.4 12:17:08 10° W 12:20:46 17° NW 12:24:26 10° NNW
Cosmos 1833 Rocket 4.1 12:16:43 10° N 12:22:05 43° ENE 12:27:25 10° SE
Cosmos 1680 Rocket 4.1 12:17:35 10° S 12:22:42 61° ESE 12:27:50 10° NNE
SL-24 DEB 4.2 12:18:32 10° S 12:23:04 90° ENE 12:27:33 10° N
H-2A R/B 4.0 12:22:38 10° WSW 12:24:19 13° W 12:26:00 10° WNW
BREEZE-M DEB (TANK) 4.4 12:22:38 10° NW 12:24:35 14° N 12:26:05 10° NE
SL-08 RB Rocket 3.7 12:21:32 10° N 12:26:02 67° WNW 12:30:32 10° SSW
Resurs 1-4 Rocket 3.9 12:23:38 10° NNW 12:26:31 15° WNW 12:29:23 10° W
Cosmos 1603 4.2 12:22:40 10° NW 12:27:55 37° WSW 12:33:06 10° S
